This is the latest recevied weather packets stored in our database for station/object K1WJY. If no packets are shown the sender has not sent any weather packets the latest 10 day(s).
| Time | Temp. | Humidity | Pressure | Rain* | Wind** | Luminosity | Snow |
|---|---|---|---|---|---|---|---|
| 1777495955 | 7.22° C | 99% | 1019.3 hPa | 1.78 mm | - | 74 W/m² | - |
| 1777495651 | 7.22° C | 99% | 1019.3 hPa | 1.78 mm | - | 65 W/m² | - |
| 1777495347 | 7.22° C | 99% | 1019.1 hPa | 1.78 mm | - | 56 W/m² | - |
| 1777495044 | 7.22° C | 99% | 1019.4 hPa | 0 mm | - | 50 W/m² | - |
| 1777494742 | 7.22° C | 99% | 1019.5 hPa | 0 mm | - | 41 W/m² | - |
| 1777494439 | 7.22° C | 99% | 1019.5 hPa | 0 mm | - | 42 W/m² | - |
| 1777494135 | 7.22° C | 99% | 1019.3 hPa | 0 mm | - | 55 W/m² | - |
| 1777493832 | 7.22° C | 99% | 1019.3 hPa | 0 mm | - | 77 W/m² | - |
| 1777493531 | 7.22° C | 99% | 1019.5 hPa | 0 mm | - | 86 W/m² | - |
| 1777493228 | 7.22° C | 99% | 1019.2 hPa | 0 mm | - | 87 W/m² | - |
| 1777492924 | 7.78° C | 99% | 1019.2 hPa | 0 mm | - | 89 W/m² | - |
| 1777492621 | 7.22° C | 99% | 1019.4 hPa | 0 mm | - | 100 W/m² | - |
| 1777492316 | 7.78° C | 99% | 1019.5 hPa | 0 mm | - | 92 W/m² | - |
| 1777492013 | 7.78° C | 99% | 1019.5 hPa | 0 mm | - | 98 W/m² | - |
| 1777491709 | 7.78° C | 98% | 1019.5 hPa | 0 mm | - | 112 W/m² | - |
| 1777491407 | 7.78° C | 98% | 1019.6 hPa | 0 mm | - | 97 W/m² | - |
| 1777491104 | 7.78° C | 98% | 1019.7 hPa | 0 mm | - | 97 W/m² | - |
| 1777490799 | 7.78° C | 98% | 1019.5 hPa | 0 mm | - | 111 W/m² | - |
| 1777490496 | 7.78° C | 97% | 1019.5 hPa | 0 mm | - | 111 W/m² | - |
| 1777490192 | 7.78° C | 97% | 1019.5 hPa | 0 mm | - | 113 W/m² | - |
| 1777489890 | 7.78° C | 97% | 1019.6 hPa | 0 mm | - | 110 W/m² | - |
| 1777489588 | 7.78° C | 97% | 1019.6 hPa | 0 mm | - | 108 W/m² | - |
| 1777489284 | 7.78° C | 97% | 1019.5 hPa | 0 mm | - | 109 W/m² | - |
| 1777488981 | 7.78° C | 96% | 1019.3 hPa | 0 mm | - | 115 W/m² | - |
| 1777488678 | 7.78° C | 96% | 1019.4 hPa | 0 mm | - | 112 W/m² | - |
* Rain latest hour (hover to see other rain measurements)
** Current wind speed in m/s (hover to see current wind gust speed)